Date String (YYYY-MM-DD hh:mm:ss) UTC,Instrument flags,absolute air pressure of the measurement (hPa),sample flow rate (lpm),inlet stack bypass flow (lpm),air temperature of the measurement (°C),ambient temperature measured by the external sensor (°C),aerosol sample conditioner tube jacket temperature (°C),OPC LED temperature (°C),internal box temperature (°C),relative humidity of the measurement (%),span deviation,mass concentration of particles derived from Lorenz-Mie calculation of OPC scattering (μg/m³),mass concentration of particles derived from Lorenz-Mie calculation of OPC scattering (μg/m³),mass concentration of particles derived from Lorenz-Mie calculation of OPC scattering (μg/m³)
DateTimeUTC,F1_M11,P_M11,Q1_M11,Q2_M11,T1_M11,T2_M11,T3_M11,T4_M11,T5_M11,U1_M11,ZSPAN_M11,X0_M11,X2_M11,X1_M11
2024-05-15 23:00:00,SystemResetWarning,0827.0,5.00,000.00,024.3,023.6,000.0,032.5,026.2,027.6,0000.0,0009.08,0003.30,0002.73
2024-05-15 23:01:00,SystemResetWarning,0827.0,4.99,000.00,024.4,023.8,000.0,032.5,026.3,027.8,0000.0,0009.16,0003.31,0002.72
2024-05-15 23:02:00,SystemResetWarning,0827.0,5.00,000.00,024.5,024.0,000.0,032.5,026.4,027.3,0000.0,0008.94,0003.29,0002.69
2024-05-15 23:03:00,SystemResetWarning,0827.1,5.00,000.00,024.6,024.1,000.0,032.6,026.5,026.6,0000.0,0008.88,0003.25,0002.67
2024-05-15 23:04:00,SystemResetWarning,0827.1,5.00,000.00,024.6,024.2,000.0,032.6,026.6,026.3,0000.0,0008.42,0003.22,0002.64
2024-05-15 23:05:00,SystemResetWarning,0827.2,5.00,000.00,024.7,024.4,000.0,032.6,026.7,026.7,0000.0,0007.77,0003.21,0002.62
2024-05-15 23:06:00,SystemResetWarning,0827.2,5.01,000.00,024.7,024.0,000.0,032.7,026.5,026.9,0000.0,0007.16,0003.19,0002.59
2024-05-15 23:07:00,SystemResetWarning,0827.2,4.99,000.00,024.5,022.2,000.0,032.8,025.6,026.0,0000.0,0006.54,0003.17,0002.58
2024-05-15 23:08:00,SystemResetWarning,0827.2,5.00,000.00,024.2,021.9,000.0,032.8,025.3,025.1,0000.0,0008.32,0003.20,0002.56
2024-05-15 23:09:00,SystemResetWarning,0827.2,5.01,000.00,024.2,022.2,000.0,032.7,025.4,026.0,0000.0,0008.68,0003.20,0002.54
2024-05-15 23:10:00,SystemResetWarning,0827.2,5.00,000.00,024.2,022.5,000.0,032.6,025.6,025.9,0000.0,0009.09,0003.22,0002.54
2024-05-15 23:11:00,SystemResetWarning,0827.3,5.00,000.00,024.2,022.8,000.0,032.6,025.8,025.4,0000.0,0009.42,0003.21,0002.54
2024-05-15 23:12:00,SystemResetWarning,0827.3,5.00,000.00,024.3,023.1,000.0,032.6,026.0,025.4,0000.0,0009.13,0003.16,0002.53
2024-05-15 23:13:00,SystemResetWarning,0827.4,5.00,000.00,024.3,023.4,000.0,032.6,026.2,024.9,0000.0,0008.91,0003.15,0002.53
2024-05-15 23:14:00,SystemResetWarning,0827.4,5.01,000.00,024.4,023.6,000.0,032.6,026.3,024.7,0000.0,0009.00,0003.20,0002.52
2024-05-15 23:15:00,SystemResetWarning,0827.4,5.00,000.00,024.5,023.8,000.0,032.6,026.4,025.1,0000.0,0009.01,0003.19,0002.51
2024-05-15 23:16:00,SystemResetWarning,0827.4,4.98,000.00,024.6,024.0,000.0,032.6,026.5,025.8,0000.0,0009.51,0003.16,0002.48
2024-05-15 23:17:00,SystemResetWarning,0827.3,5.00,000.00,024.6,024.1,000.0,032.6,026.6,025.0,0000.0,0009.82,0003.16,0002.49
2024-05-15 23:18:00,SystemResetWarning,0827.4,5.01,000.00,024.7,024.3,000.0,032.7,026.6,025.6,0000.0,0010.28,0003.17,0002.49
2024-05-15 23:19:00,SystemResetWarning,0827.4,5.01,000.00,024.8,024.2,000.0,032.7,026.6,025.7,0000.0,0008.89,0003.15,0002.48
2024-05-15 23:20:00,SystemResetWarning,0827.3,4.98,000.00,024.6,022.7,000.0,032.8,025.8,025.3,0000.0,0008.39,0003.16,0002.48
2024-05-15 23:21:00,SystemResetWarning,0827.2,5.01,000.00,024.3,021.7,000.0,032.8,025.2,025.4,0000.0,0008.04,0003.12,0002.46
2024-05-15 23:22:00,SystemResetWarning,0827.2,5.01,000.00,024.2,022.0,000.0,032.8,025.3,025.3,0000.0,0007.86,0003.11,0002.42
2024-05-15 23:23:00,SystemResetWarning,0827.2,4.99,000.00,024.1,022.4,000.0,032.7,025.5,025.1,0000.0,0008.17,0003.10,0002.40
2024-05-15 23:24:00,SystemResetWarning,0827.2,4.99,000.00,024.2,022.7,000.0,032.6,025.7,026.4,0000.0,0008.30,0003.12,0002.39
2024-05-15 23:25:00,SystemResetWarning,0827.2,5.00,000.00,024.2,023.0,000.0,032.6,026.0,026.8,0000.0,0008.17,0003.05,0002.36
2024-05-15 23:26:00,SystemResetWarning,0827.2,5.00,000.00,024.3,023.3,000.0,032.6,026.1,026.2,0000.0,0008.10,0003.02,0002.34
2024-05-15 23:27:00,SystemResetWarning,0827.2,5.01,000.00,024.4,023.5,000.0,032.6,026.2,025.9,0000.0,0007.76,0003.04,0002.33
2024-05-15 23:28:00,SystemResetWarning,0827.2,5.00,000.00,024.4,023.7,000.0,032.6,026.3,024.2,0000.0,0007.39,0003.08,0002.30
2024-05-15 23:29:00,SystemResetWarning,0827.2,5.01,000.00,024.5,023.9,000.0,032.6,026.4,024.6,0000.0,0007.58,0003.04,0002.27
2024-05-15 23:30:00,SystemResetWarning,0827.2,4.99,000.00,024.6,024.1,000.0,032.6,026.5,025.6,0000.0,0007.97,0002.99,0002.26
2024-05-15 23:31:00,SystemResetWarning,0827.2,5.00,000.00,024.7,024.2,000.0,032.7,026.6,025.1,0000.0,0008.34,0002.96,0002.23
2024-05-15 23:32:00,SystemResetWarning,0827.2,5.00,000.00,024.7,024.3,000.0,032.7,026.7,025.7,0000.0,0008.29,0002.92,0002.20
2024-05-15 23:33:00,SystemResetWarning,0827.2,4.99,000.00,024.8,024.2,000.0,032.8,026.6,025.8,0000.0,0008.36,0002.89,0002.17
2024-05-15 23:34:00,SystemResetWarning,0827.2,5.00,000.00,024.5,022.4,000.0,032.9,025.6,025.3,0000.0,0007.77,0002.86,0002.15
2024-05-15 23:35:00,SystemResetWarning,0827.2,5.01,000.00,024.3,021.7,000.0,032.9,025.2,025.0,0000.0,0007.80,0002.80,0002.12
2024-05-15 23:36:00,SystemResetWarning,0827.2,5.01,000.00,024.2,022.1,000.0,032.8,025.3,024.9,0000.0,0007.91,0002.75,0002.11
2024-05-15 23:37:00,SystemResetWarning,0827.2,4.99,000.00,024.2,022.4,000.0,032.7,025.6,025.0,0000.0,0007.92,0002.73,0002.10
2024-05-15 23:38:00,SystemResetWarning,0827.3,5.00,000.00,024.2,022.8,000.0,032.6,025.8,025.6,0000.0,0007.83,0002.68,0002.08
2024-05-15 23:39:00,SystemResetWarning,0827.3,5.00,000.00,024.3,023.1,000.0,032.6,026.0,026.3,0000.0,0007.78,0002.62,0002.05
2024-05-15 23:40:00,SystemResetWarning,0827.4,5.01,000.00,024.4,023.4,000.0,032.6,026.1,024.9,0000.0,0007.34,0002.54,0002.03
2024-05-15 23:41:00,SystemResetWarning,0827.4,5.00,000.00,024.4,023.6,000.0,032.6,026.3,025.0,0000.0,0007.44,0002.55,0002.01
2024-05-15 23:42:00,SystemResetWarning,0827.4,5.01,000.00,024.5,023.8,000.0,032.6,026.4,025.0,0000.0,0007.21,0002.51,0001.99
2024-05-15 23:43:00,SystemResetWarning,0827.4,5.00,000.00,024.6,024.0,000.0,032.6,026.5,025.0,0000.0,0007.15,0002.49,0001.98
2024-05-15 23:44:00,SystemResetWarning,0827.3,4.99,000.00,024.6,024.2,000.0,032.7,026.6,025.0,0000.0,0007.40,0002.54,0001.99
2024-05-15 23:45:00,SystemResetWarning,0827.4,4.98,000.00,024.7,024.3,000.0,032.7,026.6,025.0,0000.0,0007.72,0002.59,0001.99
2024-05-15 23:46:00,SystemResetWarning,0827.3,5.01,000.00,024.7,023.9,000.0,032.8,026.4,024.6,0000.0,0007.73,0002.60,0001.97
2024-05-15 23:47:00,SystemResetWarning,0827.3,5.00,000.00,024.5,022.2,000.0,032.8,025.5,024.0,0000.0,0008.27,0002.60,0001.95
2024-05-15 23:48:00,SystemResetWarning,0827.3,5.02,000.00,024.2,021.9,000.0,032.9,025.3,024.2,0000.0,0008.26,0002.56,0001.92
2024-05-15 23:49:00,SystemResetWarning,0827.3,5.01,000.00,024.2,022.2,000.0,032.7,025.4,024.6,0000.0,0009.11,0002.52,0001.90
2024-05-15 23:50:00,SystemResetWarning,0827.3,4.99,000.00,024.2,022.6,000.0,032.7,025.6,024.0,0000.0,0009.75,0002.51,0001.88
2024-05-15 23:51:00,SystemResetWarning,0827.3,5.00,000.00,024.2,022.9,000.0,032.6,025.8,023.9,0000.0,0010.18,0002.50,0001.84
2024-05-15 23:52:00,SystemResetWarning,0827.3,5.00,000.00,024.3,023.2,000.0,032.6,026.0,024.6,0000.0,0009.32,0002.47,0001.80
2024-05-15 23:53:00,SystemResetWarning,0827.3,5.00,000.00,024.4,023.5,000.0,032.6,026.2,024.4,0000.0,0009.36,0002.46,0001.77
2024-05-15 23:54:00,SystemResetWarning,0827.3,5.00,000.00,024.4,023.7,000.0,032.6,026.3,024.5,0000.0,0010.83,0002.41,0001.73
2024-05-15 23:55:00,SystemResetWarning,0827.3,5.00,000.00,024.5,023.9,000.0,032.6,026.4,024.1,0000.0,0012.50,0002.30,0001.69
2024-05-15 23:56:00,SystemResetWarning,0827.3,5.00,000.00,024.6,024.0,000.0,032.7,026.5,024.4,0000.0,0012.87,0002.21,0001.67
2024-05-15 23:57:00,SystemResetWarning,0827.3,4.99,000.00,024.7,024.2,000.0,032.7,026.6,023.8,0000.0,0012.82,0002.19,0001.66
2024-05-15 23:58:00,SystemResetWarning,0827.3,5.00,000.00,024.7,024.3,000.0,032.7,026.7,024.8,0000.0,0012.13,0002.19,0001.64
2024-05-15 23:59:00,SystemResetWarning,0827.3,4.98,000.00,024.7,023.6,000.0,032.8,026.2,023.9,0000.0,0012.18,0002.21,0001.64
